Theta_e
310 309 308 308 307 307 307 307 307 306 306 307 307 309 309 308 309 311 312 311 309 309 310 311 311 311 311 311 311 310 309 308 307 305 303 301 301 300 302 302 301 299 299 298 297 296 294 292 290 290 289 289 288 288 287 287 287 286 286 286 286 286 285 286 286 286 286 286 286 285 285 284 284 283 283 283 283 283 283 283 283 283 283 283 284
310 309 308 307 307 307 307 307 306 305 305 306 307 308 307 307 309 310 311 310 308 308 309 309 310 310 309 310 310 309 307 308 307 304 300 299 298 298 300 300 298 297 298 296 294 293 292 291 290 289 289 288 288 287 287 287 286 286 286 286 285 285 285 285 285 285 285 285 285 285 284 284 284 283 283 283 283 283 283 283 283 283 284 284 284
309 309 308 307 307 306 306 306 305 304 305 305 306 306 305 306 307 308 309 308 308 308 308 307 308 308 306 307 307 305 305 306 305 301 297 296 296 297 298 298 297 296 296 295 293 291 290 289 289 289 289 288 287 287 287 286 286 286 286 286 285 285 285 285 284 284 285 285 285 284 284 284 283 283 283 283 284 283 283 284 284 284 284 284 285
309 308 307 307 306 306 306 305 304 304 304 305 305 304 304 305 306 306 306 306 307 307 306 306 306 304 303 304 304 302 303 305 302 297 295 295 295 296 296 296 296 296 296 295 292 290 289 289 289 289 288 287 287 287 286 286 286 287 286 286 286 285 285 285 285 284 284 284 284 284 284 284 283 283 283 283 284 284 284 284 284 284 284 285 285
308 307 307 306 306 305 305 304 304 304 304 304 304 303 303 304 305 305 305 305 306 306 305 305 304 302 302 303 302 300 300 301 300 297 295 294 294 296 296 296 295 295 295 294 292 290 289 290 289 289 288 287 287 286 286 287 287 288 288 287 286 285 285 286 285 284 283 283 284 284 284 284 283 283 283 283 283 283 284 284 283 283 284 284 284
307 307 306 306 305 305 304 304 303 303 303 303 303 302 302 302 303 305 305 304 304 305 304 304 303 302 302 302 301 299 298 298 299 298 296 294 293 294 295 295 294 294 293 292 291 290 290 290 289 289 288 288 287 287 287 289 289 289 289 287 286 286 286 286 286 284 283 283 283 284 284 284 283 283 283 283 283 283 283 283 283 283 283 283 283
306 306 305 305 305 304 303 303 302 302 302 302 302 301 301 300 300 303 304 302 303 303 303 303 302 301 302 302 302 301 297 295 296 296 295 293 292 293 294 294 293 292 291 290 290 290 290 290 289 289 288 287 287 288 290 291 291 290 288 287 287 288 287 287 285 284 283 283 283 283 284 284 283 283 283 283 283 283 283 283 283 283 283 283 283
305 305 305 304 304 304 303 302 302 301 301 301 302 301 300 299 300 302 301 301 301 302 302 302 301 300 301 302 302 300 297 295 294 292 291 291 291 292 293 292 290 289 289 289 289 290 290 290 289 288 287 287 288 290 291 291 291 289 288 288 289 289 288 287 285 284 283 283 283 284 284 284 283 283 283 283 282 283 283 283 283 283 283 283 283
304 304 303 303 304 303 302 302 301 300 300 300 301 301 300 299 299 299 299 299 299 300 300 299 299 299 300 299 298 297 296 294 292 290 290 290 290 290 291 290 289 288 289 289 289 289 289 289 288 287 286 287 289 291 291 290 290 289 289 289 289 289 288 287 285 284 284 283 283 284 284 284 284 283 283 283 283 283 284 283 283 283 283 282 282
303 303 302 302 303 302 302 301 300 299 299 299 300 301 299 298 298 297 297 297 297 298 297 297 296 296 297 296 295 294 293 292 290 290 290 289 289 289 289 288 288 289 289 288 288 288 288 288 287 286 286 288 289 290 290 290 289 289 289 289 289 288 288 287 285 284 284 284 284 284 284 284 284 284 284 284 284 284 284 283 283 283 282 282 282
302 302 302 302 301 301 301 300 299 299 299 299 299 299 299 298 297 296 295 296 296 296 296 295 295 295 294 294 293 292 292 291 290 289 288 288 288 288 288 288 288 288 289 289 288 288 288 287 286 286 287 289 289 289 289 290 290 289 289 288 288 288 286 286 285 285 284 284 284 284 284 284 284 285 284 284 284 284 283 283 283 282 282 282 282
301 301 301 301 300 300 300 299 299 298 298 298 298 298 298 297 295 294 294 295 295 295 295 295 295 294 293 292 292 291 291 291 289 288 287 287 287 287 288 288 288 288 288 288 288 288 287 287 286 287 288 289 289 289 290 290 290 290 289 288 287 287 286 285 285 284 284 283 283 283 284 284 284 284 284 284 284 283 283 283 282 282 282 282 282
300 300 300 300 300 300 299 298 298 297 297 297 297 297 297 295 294 293 294 294 294 293 293 294 294 293 292 290 290 289 289 289 288 287 286 286 286 287 288 288 288 288 288 288 288 288 287 287 287 288 288 288 289 289 290 290 290 290 289 288 287 287 287 286 286 285 284 283 282 283 283 283 283 284 284 283 283 282 282 282 282 282 282 282 282
299 299 299 299 299 299 298 297 297 297 296 296 296 296 295 294 293 293 293 293 292 292 292 291 290 290 290 289 288 288 287 287 287 286 285 285 286 287 287 288 288 288 288 288 288 288 287 287 288 288 288 288 289 290 290 290 290 290 289 289 288 288 287 287 287 286 285 284 283 283 284 283 282 282 283 282 282 282 282 282 282 281 281 281 281
298 298 298 298 298 298 297 297 296 296 295 295 295 294 294 293 292 292 292 291 291 292 291 290 289 288 288 287 287 286 286 285 285 285 285 285 285 286 286 287 287 287 288 288 287 287 287 288 288 288 288 289 290 290 289 289 290 289 289 289 288 288 287 287 286 285 284 284 283 283 284 283 282 282 282 282 281 282 282 282 281 281 281 281 281
297 297 297 297 297 297 296 296 295 295 294 294 293 293 292 291 291 291 290 290 290 290 289 288 287 287 287 286 285 285 284 284 284 284 284 284 284 285 285 286 286 287 287 287 287 287 288 288 288 288 289 290 290 289 289 289 289 289 288 288 288 287 287 286 285 284 283 283 283 282 282 282 282 282 282 282 282 282 282 282 282 281 281 280 280
296 296 296 296 296 295 295 295 295 294 293 292 292 291 291 290 290 290 289 288 288 288 287 287 287 287 286 285 284 284 284 283 283 284 283 283 283 284 285 285 286 287 287 287 287 287 287 287 288 289 290 290 289 289 289 289 289 288 288 287 287 286 286 285 284 283 282 281 281 281 281 281 281 281 281 281 282 281 281 281 281 281 280 279 279
295 295 295 295 295 294 294 294 294 293 292 292 291 290 290 289 289 289 289 288 287 286 286 286 286 286 285 284 284 284 283 283 283 283 283 283 283 284 285 285 286 286 286 286 287 287 287 288 289 290 290 290 289 288 288 288 288 287 286 285 284 284 283 283 282 281 281 281 280 280 280 280 280 281 281 281 281 280 280 280 280 280 280 280 279
295 294 294 294 294 293 293 293 293 292 292 291 291 290 289 288 288 288 287 287 287 286 286 286 285 285 284 284 283 283 283 283 283 283 283 283 283 283 284 285 285 285 285 286 287 287 288 290 290 290 290 289 289 289 288 287 286 285 284 283 282 282 282 281 281 281 280 280 280 280 280 280 281 281 281 281 281 281 280 280 280 280 279 279 279
294 294 293 293 292 292 292 293 293 292 291 291 290 289 288 288 287 287 286 286 287 286 285 285 285 284 283 283 283 282 282 283 283 283 283 283 283 283 284 285 285 285 286 287 288 289 290 290 290 290 290 289 289 288 287 285 284 283 282 282 281 281 281 281 281 281 281 281 281 281 281 281 281 281 281 280 280 280 280 279 279 279 279 279 278
293 292 292 292 291 292 292 292 292 291 291 290 289 288 288 288 287 286 286 285 285 285 284 284 283 283 283 282 282 282 282 282 283 283 283 282 283 283 284 284 286 287 289 289 289 290 290 289 290 290 289 288 287 286 284 283 283 283 282 282 282 282 282 282 282 282 282 282 282 282 282 281 281 281 280 280 280 279 279 279 278 278 278 277 277
291 291 291 291 291 291 291 291 290 290 289 289 288 287 287 287 286 286 285 284 284 284 283 283 282 282 282 282 282 282 282 282 283 283 283 282 283 283 284 286 288 289 290 289 289 289 289 289 288 288 287 286 284 283 283 283 283 282 282 282 282 282 282 282 282 282 282 282 282 282 282 282 281 280 280 280 279 279 278 278 277 277 277 277 276
291 290 290 290 290 290 290 289 289 289 288 288 287 287 286 286 285 285 284 284 283 283 282 282 282 282 281 281 281 281 281 282 283 283 283 282 283 283 285 288 290 290 289 289 289 288 288 287 286 285 284 283 282 282 282 282 282 281 281 282 282 282 282 282 281 281 281 281 281 281 281 281 281 280 280 279 279 278 277 277 276 276 276 275 275
290 290 289 289 289 289 289 288 288 288 288 287 287 286 285 284 284 284 283 283 283 282 282 282 281 281 281 281 281 281 281 282 283 283 283 283 283 284 286 288 289 289 289 289 288 287 286 285 284 283 282 282 281 281 281 280 280 280 280 281 281 281 280 280 280 280 280 280 280 280 280 280 280 279 279 278 277 277 277 276 276 275 274 274 273
289 289 288 288 288 287 287 287 287 287 287 286 286 285 284 284 283 283 283 283 283 282 282 282 281 281 281 280 280 281 281 281 282 283 282 283 283 285 287 287 288 288 288 287 286 285 284 283 283 282 281 281 280 280 279 279 279 279 278 278 278 278 278 278 278 278 278 278 278 279 278 278 278 277 277 276 276 275 275 275 274 273 273 272 272
288 288 287 287 287 287 286 286 286 286 286 285 285 284 284 284 284 283 283 283 283 283 282 282 281 281 281 281 280 281 281 281 282 282 282 283 285 286 287 287 286 286 285 285 284 283 283 282 282 281 280 279 279 278 278 278 277 277 277 277 277 277 277 277 277 277 277 277 277 277 277 276 276 275 275 274 274 274 273 273 273 272 272 271 271
287 286 286 286 286 286 286 285 285 285 285 285 284 284 284 284 284 284 283 283 283 282 282 282 282 282 282 281 281 281 281 281 281 282 283 285 286 287 286 285 284 284 283 283 282 282 282 281 280 279 279 278 278 278 277 277 277 277 277 276 276 276 276 276 276 276 275 275 275 275 275 274 274 273 273 273 273 273 272 272 272 271 271 270 270
286 286 285 285 285 286 285 285 285 285 285 285 284 284 284 284 284 284 284 283 283 283 282 283 283 283 283 282 282 281 282 283 283 285 286 286 285 284 283 282 281 281 281 281 280 280 280 279 279 278 278 278 278 278 277 277 277 276 276 275 275 275 275 275 274 274 274 274 274 273 273 272 272 272 272 271 271 271 271 271 271 270 270 269 269
286 285 285 285 285 285 285 285 285 285 284 285 284 284 284 284 284 284 284 284 284 284 283 283 283 283 283 283 283 283 283 284 286 286 285 284 283 282 281 280 280 279 279 279 279 279 279 279 278 278 278 278 278 277 277 277 276 276 275 275 274 274 274 273 273 273 272 272 271 271 271 271 271 270 270 270 270 270 270 269 269 269 269 269 268
285 285 285 285 285 285 285 285 285 284 284 284 284 284 284 284 284 284 284 284 284 285 284 284 285 285 285 284 284 284 284 284 284 283 282 281 280 280 280 279 279 279 279 279 279 279 279 278 278 278 278 278 277 277 276 276 275 275 274 274 273 273 272 272 271 271 271 270 269 269 269 269 269 269 268 268 268 268 268 268 267 267 267 268 267
285 285 285 285 285 285 285 284 284 284 283 283 283 283 283 283 283 283 284 284 285 285 285 285 285 286 285 284 283 283 283 282 282 281 280 280 280 279 279 279 279 279 279 279 279 279 279 278 278 278 277 277 276 276 275 274 274 274 273 272 272 271 271 270 270 269 268 267 267 267 268 267 267 267 267 266 266 266 266 266 266 266 266 266 266
285 284 285 285 284 285 284 284 284 283 283 283 283 283 282 281 281 281 282 282 282 283 283 283 283 283 283 282 282 281 281 281 281 280 280 280 279 279 279 279 279 279 279 279 279 279 279 278 278 277 276 276 275 274 274 273 272 272 272 271 270 270 269 268 268 267 266 266 266 266 266 266 265 265 265 265 265 265 265 265 265 265 265 265 265
287 285 285 285 284 284 284 284 284 284 284 284 283 282 281 281 280 280 280 280 281 281 281 281 281 281 281 281 281 281 280 280 280 280 279 279 279 279 279 279 279 279 279 279 278 278 278 277 277 276 275 274 274 273 272 272 271 271 270 269 268 268 267 267 266 265 265 265 265 265 264 264 264 264 264 264 264 264 264 264 264 264 265 265 265
287 287 286 286 285 284 284 284 284 284 284 284 283 282 281 281 280 280 280 280 280 280 280 280 280 280 280 280 280 280 280 279 279 279 279 279 279 279 278 278 278 278 278 278 277 277 277 276 276 275 274 273 273 272 271 271 271 270 269 268 267 266 266 266 265 265 264 264 264 264 264 263 263 263 263 263 263 263 263 264 264 264 264 264 264
286 286 285 285 285 284 284 284 284 284 283 282 282 282 281 281 280 280 280 280 279 279 279 279 279 279 280 280 279 279 279 279 279 279 279 278 278 277 277 277 277 276 276 276 276 276 275 275 274 274 273 273 272 271 271 270 269 268 267 266 266 265 265 265 265 264 264 264 263 263 263 263 262 262 262 262 262 262 263 263 263 263 263 263 263
285 285 284 284 284 284 284 284 284 283 282 282 282 281 281 280 280 280 279 279 279 278 278 278 279 279 279 279 278 278 278 278 278 278 277 277 276 276 276 276 275 275 275 275 275 275 274 274 273 273 273 272 272 271 270 269 268 267 266 266 265 265 265 265 264 264 264 263 263 262 262 262 262 262 262 262 262 262 262 262 263 263 262 262 262
285 285 284 284 284 284 284 283 283 282 281 281 281 281 280 280 279 279 278 278 277 277 277 277 278 278 277 277 277 277 277 276 276 276 276 276 275 275 275 275 274 274 274 274 274 274 273 273 273 272 271 271 270 269 268 268 267 266 266 265 265 265 264 264 264 264 263 263 263 262 262 262 262 261 261 261 261 261 261 262 262 262 262 262 262
285 285 285 284 284 283 283 282 281 281 281 280 280 280 280 279 278 278 277 276 276 276 276 276 276 276 276 275 275 275 275 275 275 274 274 274 274 274 274 274 274 274 273 273 273 272 272 271 271 270 270 269 269 268 268 267 266 266 265 265 265 264 264 264 264 263 263 263 263 262 262 262 261 261 261 261 261 261 261 261 261 260 261 261 261
284 284 284 284 283 283 282 282 281 280 280 280 279 279 279 278 277 276 276 276 275 275 275 275 275 275 275 274 273 273 274 273 273 273 273 273 274 274 273 273 272 272 272 271 271 271 270 270 269 269 269 269 268 268 267 266 266 265 265 265 264 264 264 264 263 263 263 263 262 262 262 262 261 261 261 260 260 260 260 260 260 260 260 260 261
283 283 283 283 282 282 281 281 281 280 280 279 279 279 279 278 277 276 275 275 274 274 274 275 274 273 273 273 273 273 272 272 272 273 273 273 273 272 271 271 271 271 270 270 270 270 269 269 269 269 268 268 267 267 266 266 265 265 265 264 264 264 263 263 263 263 263 263 262 262 262 262 261 261 261 260 260 260 260 260 260 260 260 260 260
283 282 282 282 282 281 281 280 280 280 280 280 279 280 279 278 277 277 276 274 273 273 273 273 272 272 273 273 273 272 271 271 272 273 273 272 271 271 270 270 270 270 270 269 269 269 269 269 268 268 268 267 267 266 266 265 265 265 264 264 264 264 263 263 263 263 263 262 262 262 262 262 261 261 261 261 261 260 260 260 260 260 260 260 260
282 282 281 281 281 280 280 280 279 279 279 279 279 280 279 278 277 278 277 275 273 273 272 271 271 272 272 272 271 271 271 271 272 272 272 271 270 269 269 269 269 269 269 269 269 268 268 268 268 267 267 266 266 266 265 265 265 264 264 264 264 264 263 263 263 263 263 262 262 262 262 262 261 261 261 261 261 261 260 260 260 260 260 260 260
282 282 281 280 280 280 280 279 279 279 279 279 279 279 279 278 278 277 276 275 274 273 272 271 271 272 271 270 270 269 270 271 271 271 270 269 268 268 268 268 268 268 268 268 268 268 267 267 267 267 266 266 265 265 265 265 264 264 264 264 264 264 263 263 263 263 263 262 262 262 262 262 261 261 261 261 261 260 260 260 260 260 260 260 260
282 282 281 280 279 279 279 279 279 279 279 278 278 278 278 277 277 276 276 275 274 272 272 272 272 271 270 269 269 269 269 270 270 269 268 268 267 268 268 268 267 267 267 267 267 267 267 266 266 266 265 265 265 265 264 264 264 264 264 263 263 263 263 263 263 263 262 262 262 262 261 261 261 261 261 261 261 260 260 260 260 260 259 259 259
281 281 280 279 279 278 278 278 277 277 277 277 277 276 276 275 275 275 275 274 273 272 272 272 272 271 270 269 269 268 269 268 268 267 267 267 267 267 267 267 267 267 266 266 266 266 266 266 266 265 265 265 265 264 264 264 264 264 263 263 263 263 263 263 262 262 261 261 261 261 261 261 261 261 261 261 260 260 260 260 260 259 259 259 259
279 279 279 279 278 277 277 276 276 276 275 275 275 275 274 274 274 274 273 273 273 272 272 271 271 271 270 269 269 268 268 267 267 266 266 266 266 266 266 266 266 266 266 266 266 266 266 266 265 265 265 265 264 264 264 264 264 264 263 263 263 263 263 262 262 261 261 261 260 260 260 260 260 260 260 260 260 259 259 259 259 259 259 259 259
278 278 278 277 277 276 276 275 275 275 274 274 274 274 273 273 273 272 272 272 272 271 271 271 270 270 269 269 268 268 268 267 266 265 265 265 265 265 265 265 265 266 266 266 265 265 265 265 265 265 265 264 264 264 264 263 263 263 263 263 263 262 262 262 262 261 261 261 260 260 260 260 259 259 259 259 259 259 259 259 259 259 259 259 258
277 277 276 276 276 275 275 274 274 273 273 273 272 272 272 271 271 271 271 270 270 270 270 269 269 268 268 268 267 267 266 265 265 265 265 265 265 265 265 265 265 265 265 265 265 265 265 265 265 265 264 264 264 264 263 263 263 263 263 263 263 263 262 262 262 261 261 261 261 261 260 260 260 259 259 258 258 258 258 258 258 258 258 258 258
276 276 275 275 274 274 273 273 272 272 272 271 271 271 270 270 270 269 269 269 269 268 268 267 267 267 266 266 266 265 265 265 265 265 265 265 265 265 265 265 265 265 265 265 265 265 265 265 264 264 264 264 264 264 263 263 263 263 262 263 263 263 263 262 262 262 261 261 261 261 261 260 260 260 259 258 258 258 258 258 258 258 258 258 258
274 274 274 273 273 272 272 272 271 271 271 270 270 269 269 268 268 268 268 267 267 267 267 266 266 266 265 265 264 264 264 264 264 264 264 265 265 265 264 264 264 264 264 265 265 265 264 264 264 264 264 263 263 263 263 263 263 263 263 263 263 263 262 262 262 262 261 261 261 261 261 261 260 260 259 259 258 258 258 258 258 258 258 258 258
272 272 272 272 271 271 270 270 270 269 269 268 268 268 267 267 267 267 267 266 266 266 265 265 265 264 264 264 264 264 264 264 264 264 264 264 265 264 264 264 264 264 264 264 264 264 264 264 264 263 263 263 263 263 263 263 263 263 263 263 263 263 262 262 262 262 261 261 261 261 260 260 260 260 260 259 258 258 258 258 258 258 258 258 258
Wind_Speed
21 20 20 20 21 21 21 23 25 26 28 31 31 31 31 30 30 29 29 30 31 31 31 32 33 33 33 34 34 34 34 33 32 31 30 29 28 28 30 30 28 28 28 27 26 25 25 24 22 20 18 16 15 14 13 11 9 7 6 5 4 4 4 4 3 5 5 6 7 9 11 12 12 13 14 15 17 19 21 21 22 23 24 24 24
22 21 20 21 22 22 22 23 26 27 29 30 30 30 30 30 31 30 31 31 31 31 31 31 32 32 32 33 34 34 33 32 31 30 29 29 28 29 29 29 28 28 29 28 27 27 26 25 23 21 19 17 16 14 12 10 8 6 4 3 3 3 4 4 4 5 6 7 7 8 11 13 14 14 14 15 17 18 21 23 24 25 25 25 25
22 22 22 23 23 23 23 24 26 28 29 30 30 29 29 31 31 32 32 32 32 31 31 31 30 30 31 33 34 33 33 32 31 30 29 29 29 30 29 29 29 30 30 30 29 29 28 26 24 22 20 18 16 14 11 9 7 5 3 2 3 4 5 6 6 6 7 9 10 11 12 14 15 15 15 18 20 21 22 24 24 25 26 27 28
22 22 23 23 23 24 25 26 27 29 29 29 29 28 29 31 32 32 32 32 31 32 31 30 29 29 31 33 33 32 31 31 30 29 28 29 30 31 30 30 31 32 32 32 32 31 29 27 25 22 21 19 17 14 12 9 6 3 2 3 4 6 8 8 8 8 9 11 14 15 14 15 17 17 17 19 21 22 23 25 25 26 28 28 30
23 23 24 25 25 25 27 28 29 31 30 30 30 29 28 30 31 32 31 31 31 31 31 31 30 30 31 33 32 32 31 30 30 29 29 29 30 31 31 30 31 32 33 33 33 32 30 28 25 23 22 20 17 15 12 8 4 2 3 5 7 8 9 10 11 11 11 13 16 17 16 16 18 18 18 20 21 22 24 25 25 26 28 29 30
24 24 25 26 26 26 27 28 31 33 32 31 31 30 29 29 30 31 31 31 31 31 32 31 30 31 32 33 32 31 30 30 29 29 29 29 30 31 31 31 32 33 33 34 33 31 29 27 25 24 22 20 18 15 11 7 5 4 4 7 8 9 11 12 14 14 14 16 17 18 18 18 18 19 20 20 20 22 24 25 26 25 26 28 29
24 25 25 26 26 27 28 29 30 32 33 32 30 30 30 29 30 31 31 31 31 32 32 31 30 31 32 32 30 30 30 30 29 29 30 30 31 31 32 32 33 33 34 34 32 30 28 25 24 23 21 19 17 14 9 5 6 6 6 8 10 12 14 15 15 15 16 17 18 19 20 18 17 19 21 20 20 23 25 25 26 26 24 24 26
25 26 26 26 26 27 27 28 29 30 31 31 30 30 29 30 30 31 31 31 32 32 32 30 30 30 31 30 29 29 30 30 29 30 30 31 32 33 33 33 33 33 33 32 30 28 26 24 23 21 20 18 14 9 6 4 5 7 9 11 12 14 16 17 17 16 17 18 19 20 20 18 17 19 21 18 19 24 25 23 24 27 26 25 26
26 26 26 27 27 25 25 25 25 27 29 30 30 30 29 29 30 30 31 32 32 31 30 29 29 30 30 29 27 28 29 30 31 32 32 32 33 33 33 34 34 34 32 30 29 27 25 23 22 20 20 17 11 7 5 4 6 9 12 13 15 15 17 18 18 17 18 19 21 21 20 19 19 20 21 20 21 25 25 21 23 26 26 27 28
26 26 26 26 24 23 23 23 23 25 28 29 30 30 29 28 29 30 30 30 30 29 29 28 29 29 28 27 26 27 28 30 31 32 33 34 34 33 34 34 34 34 32 31 29 27 25 23 21 20 19 15 9 8 6 6 9 12 14 16 17 18 19 20 20 19 20 21 23 22 20 21 22 22 23 25 24 25 25 23 24 26 25 24 27
24 25 24 23 22 21 22 22 24 25 26 28 29 29 29 28 29 29 29 29 29 28 27 27 28 27 26 25 26 27 28 30 31 32 33 34 35 35 35 34 34 33 32 31 29 27 25 22 20 20 17 13 11 10 8 9 12 15 17 19 21 22 22 22 22 23 23 24 26 24 21 24 27 26 26 28 27 26 26 26 25 24 23 20 22
23 23 23 21 21 22 22 23 24 24 25 27 28 28 28 28 28 28 28 28 28 27 27 27 27 27 25 25 25 26 27 29 30 31 32 34 35 35 35 34 33 32 31 30 29 27 25 22 21 19 15 13 13 11 11 12 15 16 18 20 23 25 25 25 26 27 27 28 28 28 27 28 31 31 29 27 27 26 25 26 24 23 22 20 21
22 21 21 20 21 21 22 22 23 24 24 25 26 27 28 28 27 27 27 27 27 26 26 26 25 25 24 24 25 25 25 27 29 31 32 34 33 33 34 34 33 32 31 29 27 26 24 22 20 17 15 15 13 12 14 16 17 18 19 21 24 27 28 29 30 32 33 31 30 33 35 32 32 35 32 26 25 25 24 25 24 22 22 22 23
20 20 20 20 20 20 21 22 22 23 24 24 25 27 28 28 27 27 26 25 25 25 25 24 23 23 23 23 23 24 24 26 28 30 31 32 32 32 33 33 32 31 30 28 25 23 22 20 18 17 16 15 14 15 17 18 19 20 21 23 25 27 29 30 32 34 35 34 35 39 42 37 34 36 34 28 26 26 25 24 24 24 25 27 29
19 19 19 19 20 20 21 21 21 22 23 23 25 26 27 27 26 26 25 24 24 25 25 24 24 23 22 22 22 22 23 24 26 28 30 31 31 30 30 31 30 29 27 24 22 20 19 18 17 16 15 14 16 18 18 18 20 22 24 25 27 29 30 31 32 32 32 33 36 39 41 39 35 35 34 30 27 26 25 26 28 29 29 30 32
17 17 17 18 19 19 20 20 20 20 22 23 24 25 26 26 25 24 24 23 23 24 23 23 23 22 21 21 21 21 21 22 24 27 29 30 30 28 28 29 28 26 24 22 20 19 18 17 16 15 14 16 17 18 17 18 21 23 25 28 29 31 34 34 33 32 32 33 35 36 37 37 34 33 32 30 29 28 28 28 29 28 25 24 26
15 15 15 15 17 17 18 19 20 20 21 22 23 24 25 25 24 24 23 22 22 22 22 21 21 21 20 20 21 21 21 21 23 26 28 28 28 27 26 27 26 25 23 22 20 19 18 16 15 14 16 17 17 17 18 19 22 24 26 28 30 33 35 34 33 32 32 32 33 34 35 35 32 31 31 30 29 29 28 28 27 25 22 20 21
13 13 14 14 15 16 17 19 20 20 21 22 23 23 23 23 23 23 22 22 21 21 20 19 19 19 20 20 20 21 21 21 22 25 26 27 27 27 27 26 25 24 23 21 19 17 16 14 15 16 17 17 17 18 19 20 23 24 25 27 30 32 31 30 30 30 28 28 29 29 30 31 30 30 30 29 27 24 24 26 27 25 23 21 20
12 13 14 13 14 15 16 18 20 20 21 22 22 22 22 22 22 21 21 20 20 19 19 18 18 18 19 19 19 20 21 21 22 23 25 26 27 27 27 26 25 23 21 19 17 15 15 14 15 16 17 18 19 19 20 21 22 23 23 24 27 29 27 25 25 25 25 25 25 26 27 28 28 28 28 28 26 23 24 26 26 25 23 22 21
12 13 13 13 14 15 16 18 20 20 21 21 21 21 21 21 21 20 19 19 19 19 18 18 17 17 18 18 18 19 20 21 21 21 23 25 26 26 26 25 24 22 19 17 15 14 14 14 15 17 18 20 20 19 19 19 19 20 20 21 24 25 24 23 23 23 24 26 26 27 28 27 27 27 27 26 25 23 23 24 24 24 23 22 22
11 12 12 13 13 14 15 17 19 20 20 20 20 19 19 20 20 20 20 19 19 18 18 17 17 17 17 17 17 18 19 20 20 20 21 23 24 24 24 23 21 18 16 14 13 12 13 15 17 19 19 18 17 17 16 14 14 16 18 19 21 21 21 23 24 23 24 25 25 26 26 24 22 22 22 22 22 22 23 24 22 21 21 21 20
12 12 12 12 12 13 14 15 17 18 18 19 19 19 18 18 19 20 20 20 19 18 18 17 17 17 16 16 17 17 17 18 19 20 21 21 21 21 21 19 16 14 12 12 11 12 13 15 16 16 15 14 13 12 10 9 10 13 15 17 18 18 19 22 23 22 21 21 21 21 20 18 17 17 19 21 22 21 20 19 18 16 16 17 18
12 12 12 12 12 13 14 15 16 16 17 18 18 18 17 18 19 19 19 20 20 18 17 17 17 17 16 16 16 17 17 18 19 20 20 20 21 21 19 15 13 12 12 12 12 12 12 13 13 13 12 11 10 9 8 8 10 11 12 12 13 15 17 19 19 19 20 19 19 19 18 17 17 17 17 17 16 15 14 15 16 16 16 18 20
13 13 13 14 14 15 14 15 15 15 16 17 17 18 18 19 19 19 19 20 20 18 16 16 17 16 16 15 15 16 18 20 20 21 21 22 22 20 16 13 12 12 12 11 11 10 10 10 10 9 8 8 9 9 9 10 10 10 11 13 15 17 18 18 18 17 17 17 17 17 16 16 16 16 16 17 19 21 22 22 23 23 22 23 23
14 15 16 16 16 16 15 15 15 15 16 17 17 19 20 20 19 18 19 20 19 17 15 15 17 17 16 16 16 16 18 20 20 21 22 22 19 16 12 11 11 10 10 9 8 8 8 8 8 7 7 8 9 9 10 9 9 9 11 13 14 14 13 13 13 13 14 14 14 14 14 15 15 17 20 22 25 26 25 25 25 24 23 25 25
18 18 17 17 16 16 16 16 16 16 16 16 17 19 19 18 17 17 17 18 18 17 16 17 18 18 17 17 18 18 18 19 20 20 20 19 17 14 12 11 11 10 9 9 9 9 8 8 7 7 8 8 8 7 7 6 5 5 5 5 6 6 6 6 8 9 10 12 13 13 14 15 17 19 20 21 21 21 21 22 24 24 23 23 24
21 20 19 18 18 17 17 18 17 16 16 16 17 18 18 18 17 16 16 17 18 17 18 18 16 15 15 16 18 18 18 19 19 19 18 17 16 15 14 13 13 12 12 11 10 9 8 8 8 8 7 6 5 3 1 1 2 2 2 3 4 5 5 5 7 8 10 11 13 14 15 16 18 19 19 19 19 19 19 20 21 22 21 20 21
22 21 20 20 19 17 18 18 17 15 15 15 15 16 16 16 17 15 15 16 16 16 17 17 15 14 15 16 17 17 17 19 20 19 19 18 16 15 15 14 13 12 12 11 10 9 8 6 4 3 2 1 2 3 3 2 2 2 2 3 4 5 5 5 6 8 9 10 11 14 16 17 17 18 18 18 18 17 18 18 19 20 20 19 19
22 21 20 19 19 18 18 18 16 16 17 16 15 14 14 14 15 14 14 14 14 15 17 16 15 15 16 17 17 17 17 18 19 18 17 15 14 13 12 12 11 10 10 9 7 5 3 2 2 3 3 4 3 2 1 1 1 1 3 4 4 5 5 5 6 7 8 10 12 14 15 16 16 16 16 17 16 16 16 17 18 19 19 18 17
22 20 19 20 19 19 19 18 18 19 19 19 18 16 14 13 14 14 14 13 12 13 15 15 15 16 16 15 16 16 16 16 16 14 13 12 11 10 10 10 9 9 8 7 6 5 6 5 5 4 3 2 1 1 1 1 1 1 2 4 5 5 4 4 5 7 10 12 13 13 13 14 14 14 14 15 15 15 15 15 16 17 17 17 17
23 20 20 21 21 20 20 20 20 21 20 20 20 20 17 14 11 10 11 11 10 10 11 12 13 14 14 13 13 12 11 12 13 13 13 12 12 11 11 10 9 9 8 8 7 7 6 5 4 4 3 2 2 3 2 2 2 2 3 5 6 5 4 5 7 10 13 12 10 10 10 11 11 12 12 13 13 14 14 14 14 15 15 15 16
25 22 22 22 22 22 23 23 22 22 22 21 21 22 21 19 15 12 9 9 9 9 9 10 11 11 11 12 12 12 11 12 13 14 14 13 12 11 10 10 9 9 9 8 7 6 5 5 5 4 4 4 4 4 3 3 4 5 6 7 6 6 7 9 11 11 11 9 7 8 9 9 9 10 10 11 11 12 13 13 13 14 14 15 15
24 24 24 25 24 24 24 25 24 24 24 23 23 23 22 20 17 16 15 13 11 11 11 11 12 12 11 11 12 13 14 14 15 14 14 13 13 12 12 11 10 9 9 8 7 6 6 6 6 5 5 5 5 5 5 5 6 7 8 8 7 8 9 10 10 9 7 6 7 7 7 7 8 9 9 9 10 11 12 13 13 13 13 14 14
23 25 26 26 26 26 26 25 25 24 24 24 23 22 20 19 19 18 18 17 15 14 13 12 12 12 13 12 12 13 15 15 15 15 15 15 14 14 14 13 11 9 8 8 8 7 7 7 7 7 8 8 7 7 7 8 9 9 8 8 8 8 8 8 7 7 6 6 6 6 6 7 8 8 9 9 10 11 12 12 12 13 12 13 14
21 23 24 25 26 27 26 25 24 25 25 23 21 20 20 19 18 16 15 17 18 17 17 15 13 13 14 15 15 16 16 17 17 18 17 15 14 13 12 11 10 9 9 9 9 9 8 9 9 10 10 10 9 10 10 10 10 9 8 8 8 7 7 6 6 6 6 6 5 6 7 8 8 8 9 10 10 11 11 11 11 12 12 12 13
20 22 23 23 24 25 24 23 24 25 25 23 21 20 20 19 17 15 15 18 21 22 22 20 18 17 17 17 17 17 17 18 19 18 17 15 13 11 10 10 10 10 10 10 11 11 11 11 11 12 11 11 10 10 10 10 9 9 8 8 7 7 6 6 5 6 7 7 6 7 8 9 9 9 9 9 10 10 10 11 11 11 11 12 13
20 22 23 22 22 23 23 22 22 23 23 22 21 21 20 18 16 16 18 20 22 23 23 23 22 21 19 17 16 16 16 16 15 15 14 14 13 12 11 11 11 11 10 10 11 11 12 12 12 12 11 10 10 10 9 9 9 9 8 8 8 7 6 6 6 7 7 7 7 8 9 9 9 8 8 9 9 9 9 9 10 11 11 11 11
20 22 23 23 22 22 22 21 21 22 22 22 21 20 19 17 16 16 18 20 21 22 23 22 21 21 20 18 16 16 15 14 13 12 12 12 12 12 11 11 11 11 11 10 11 11 11 11 11 10 10 10 10 10 10 10 10 9 9 9 8 7 7 7 7 7 8 8 7 7 8 8 7 7 7 8 9 8 8 9 9 10 11 10 10
20 21 22 22 22 22 22 23 23 22 22 21 20 19 19 18 17 17 20 21 20 19 20 21 19 19 19 19 17 15 14 13 12 12 11 11 11 11 11 11 11 11 11 10 11 11 11 10 10 10 10 10 10 11 11 11 11 10 10 10 9 9 9 8 8 8 9 9 8 8 8 8 7 7 7 7 7 8 8 9 9 9 10 10 10
20 21 21 22 22 23 23 23 23 23 23 22 20 20 20 19 19 20 22 22 19 18 19 19 17 17 19 20 18 16 14 13 12 11 11 10 10 11 11 12 12 11 11 11 11 11 11 10 10 10 11 11 11 11 12 12 11 11 11 11 11 11 10 10 10 10 10 10 10 9 9 9 8 8 7 7 7 8 9 9 9 9 9 10 10
21 21 22 22 22 22 22 22 22 23 22 21 20 21 21 20 20 22 22 21 19 19 20 18 16 17 20 21 18 15 14 12 10 10 10 10 11 12 12 12 12 11 11 11 11 11 11 11 11 11 11 12 12 12 12 12 12 12 13 13 12 12 12 12 12 12 12 12 12 11 10 10 9 9 9 8 8 9 9 9 9 9 10 10 10
21 22 21 21 20 21 21 21 21 21 21 20 20 20 20 19 20 22 22 20 20 22 21 18 16 18 19 18 15 14 13 12 10 10 11 11 12 12 12 12 12 11 11 11 11 12 12 12 12 12 12 12 13 13 13 13 13 13 14 14 14 14 13 13 13 13 13 13 14 13 12 11 11 11 10 10 9 10 9 10 10 10 11 11 10
20 20 20 20 20 20 20 20 20 20 20 20 19 20 20 19 19 21 21 20 20 21 21 18 18 18 18 15 13 13 13 13 12 12 12 13 13 13 12 12 12 12 12 11 11 12 12 12 12 12 13 13 13 13 14 14 14 14 15 15 15 15 14 14 14 14 14 14 14 14 14 13 12 12 12 11 11 10 10 11 11 11 11 11 11
18 19 19 18 18 18 18 18 19 19 19 19 19 19 19 19 19 20 20 20 20 20 20 19 19 19 18 16 14 14 13 13 13 13 13 13 13 13 12 12 12 11 11 11 11 12 12 12 12 13 13 14 14 14 15 15 15 16 16 16 17 16 16 15 14 14 14 15 15 15 15 14 14 13 13 12 12 12 12 12 11 11 11 11 12
17 18 18 18 17 17 17 17 18 18 18 18 18 18 18 18 19 19 19 20 20 19 18 18 17 18 18 17 15 14 13 12 13 13 14 13 13 13 12 12 11 11 11 11 11 12 12 12 13 13 14 14 15 15 16 16 17 17 17 18 18 18 17 16 15 15 16 17 17 17 16 16 15 15 15 14 13 13 13 12 11 11 12 13 13
16 17 17 17 17 17 17 17 17 17 17 17 17 18 17 17 17 17 18 18 18 17 17 16 16 16 16 15 15 14 13 12 13 13 13 13 13 12 12 12 12 11 12 12 12 12 13 14 14 15 15 15 15 16 16 17 18 18 19 19 19 19 18 17 17 17 17 18 18 18 18 18 18 17 17 16 15 15 15 14 14 13 13 13 13
15 16 17 17 17 17 17 17 16 16 16 16 17 17 16 16 16 16 15 15 15 15 14 15 15 15 14 14 14 14 14 14 14 14 13 13 12 12 12 12 12 12 13 13 13 14 14 15 16 16 16 16 17 17 18 18 19 20 20 20 20 20 19 18 18 18 18 19 20 20 19 19 19 19 18 18 17 17 16 16 15 14 13 13 13
14 15 15 15 15 16 16 16 15 15 15 15 15 15 15 15 14 14 13 13 13 13 12 13 13 13 14 14 14 15 15 15 15 14 13 13 12 12 12 12 13 13 14 14 15 15 16 17 17 18 18 19 19 19 20 20 20 20 21 21 20 20 19 18 19 19 20 20 21 21 20 20 20 20 20 20 19 18 17 16 16 14 13 12 12
13 14 14 14 14 15 15 15 15 14 14 14 13 13 12 12 12 11 11 10 10 10 11 11 12 13 13 14 14 14 14 14 14 14 13 13 13 12 13 13 14 15 16 16 17 17 18 18 19 20 20 21 21 21 21 21 21 21 22 21 21 20 19 19 20 20 21 21 22 22 21 21 21 21 21 21 20 20 19 18 17 15 14 13 13
13 13 14 14 14 14 13 13 13 12 12 11 10 10 10 9 9 8 8 8 9 9 10 11 11 12 12 12 13 13 13 14 14 14 13 13 13 14 14 15 16 17 18 18 18 19 20 21 21 22 22 23 23 23 22 22 22 22 22 21 20 20 20 21 21 21 21 22 22 22 22 22 22 22 22 21 20 20 19 18 17 15 14 13 12
13 13 12 12 12 11 11 10 9 9 8 8 7 7 7 7 6 7 7 8 8 9 9 9 10 10 11 12 12 13 13 14 14 14 14 15 15 15 16 17 17 18 19 20 21 21 22 22 23 24 24 24 24 24 24 24 23 23 22 21 21 21 21 22 22 22 22 22 22 22 23 23 23 22 22 21 20 20 19 17 16 16 15 14 13
Wind_Direction
202 205 207 211 216 217 218 222 223 225 226 225 225 227 228 229 229 230 232 232 230 230 233 235 236 233 229 226 224 223 221 219 219 219 216 214 213 214 213 210 206 204 205 202 198 195 193 191 189 187 186 186 184 186 185 184 185 183 182 191 206 220 215 214 254 281 288 282 273 273 277 281 285 287 287 289 293 296 298 301 301 302 304 306 307
201 202 206 212 217 218 221 223 225 227 227 226 226 228 228 229 230 231 231 231 232 234 236 236 234 231 228 226 224 222 221 220 220 219 215 212 210 211 211 206 200 199 199 195 190 189 189 188 185 182 183 185 185 184 182 179 176 173 179 194 212 236 234 222 239 270 276 279 286 287 285 287 290 290 289 291 295 295 296 300 301 302 304 307 308
201 202 206 213 216 218 220 222 224 227 227 227 229 230 229 230 231 231 232 233 235 237 237 233 232 230 227 224 222 221 220 220 220 218 213 210 209 210 208 202 198 198 195 191 188 186 186 185 183 182 183 185 183 180 175 171 168 167 185 218 221 241 256 250 243 257 272 275 276 277 281 283 285 287 288 292 297 297 297 300 301 301 304 306 306
205 205 209 214 216 216 217 218 222 225 225 226 228 229 230 231 231 231 232 234 236 237 234 232 231 230 226 222 220 219 220 221 219 217 214 213 212 211 206 200 198 198 195 192 189 186 185 183 182 182 184 183 179 175 168 162 161 166 215 266 261 255 264 271 267 261 264 271 275 278 277 274 275 280 284 289 295 298 300 302 302 301 304 306 305
208 209 211 214 217 217 217 219 222 225 225 226 226 225 226 229 231 231 231 233 235 235 232 231 231 228 224 221 218 217 219 220 219 217 216 215 215 213 206 199 197 197 196 193 190 187 186 184 183 183 184 182 176 169 160 152 157 194 263 274 271 267 272 281 281 272 264 266 273 278 276 272 274 278 283 287 292 296 298 299 298 298 302 303 304
210 210 213 215 217 218 218 220 225 226 226 226 226 224 225 226 228 230 231 232 233 232 232 232 231 228 224 220 218 218 220 222 221 221 220 216 214 210 204 198 196 195 195 193 190 189 187 186 185 185 185 181 170 159 151 157 188 216 250 263 268 274 279 281 279 275 268 266 270 274 273 271 272 276 282 283 285 289 293 294 294 294 295 298 301
211 212 214 215 217 218 219 221 225 226 225 225 225 224 224 224 227 231 232 231 231 231 232 233 231 229 225 222 221 222 223 223 222 222 219 215 211 206 201 197 194 193 193 191 189 188 189 189 187 186 185 176 161 152 158 186 209 216 234 254 267 275 278 277 274 270 267 266 268 271 273 273 270 273 281 281 279 284 286 286 290 293 292 291 294
213 214 213 214 217 220 221 223 225 225 223 224 224 223 223 225 228 231 232 231 231 232 233 232 230 228 225 223 224 224 224 224 222 218 214 211 209 205 199 194 191 189 189 189 188 189 190 190 188 186 179 165 156 163 191 210 213 221 238 255 268 275 275 273 269 264 263 265 267 270 273 273 269 272 278 274 270 278 283 279 281 288 290 288 288
213 215 214 216 219 220 221 222 223 223 221 221 222 220 220 224 227 229 230 231 232 233 232 231 228 225 223 223 224 224 224 224 221 217 212 209 206 201 194 191 190 188 186 186 187 189 189 187 186 183 172 164 169 201 222 225 230 237 248 260 268 273 273 270 265 261 262 264 266 270 272 270 267 270 272 266 265 275 281 276 274 281 285 285 286
213 216 217 219 219 218 219 219 220 220 219 220 219 218 218 221 224 226 228 229 230 230 229 227 225 223 222 223 223 222 223 224 222 219 215 209 203 197 192 191 191 189 188 186 185 186 187 187 184 177 170 172 194 220 226 237 248 251 256 261 264 266 268 268 265 262 261 263 265 268 269 268 268 269 270 272 273 275 277 275 274 279 282 282 285
213 217 219 219 218 217 217 218 218 219 220 219 218 216 216 220 223 224 225 226 228 228 227 225 224 224 225 226 225 223 224 225 223 220 215 208 203 198 193 190 190 190 190 188 186 185 186 185 179 174 175 188 208 219 232 251 260 260 259 261 263 263 264 266 267 266 263 263 266 268 267 270 273 273 273 277 278 277 278 279 277 278 278 278 283
214 217 219 218 217 216 215 216 217 218 218 218 217 214 215 218 221 221 221 223 225 225 225 226 226 226 227 228 227 226 227 227 224 219 212 206 202 198 193 190 190 190 191 190 189 188 185 181 176 177 186 201 211 224 243 258 268 269 265 264 263 263 264 266 268 268 264 264 268 270 269 270 274 277 277 278 282 284 284 283 279 276 276 277 280
215 217 218 216 215 214 214 214 216 216 215 215 216 214 214 216 217 218 219 222 222 222 223 226 227 227 226 227 227 227 228 228 223 217 211 205 201 197 195 193 192 191 191 192 192 190 184 178 177 183 195 205 219 240 251 258 271 277 273 269 267 266 268 270 271 271 268 266 267 270 272 271 273 277 280 282 287 292 291 286 282 279 280 281 282
213 216 215 213 212 212 212 212 213 213 213 213 213 213 213 214 216 218 219 218 218 219 221 223 223 225 224 224 225 226 227 228 223 216 210 205 201 198 197 195 193 191 192 193 191 187 182 180 185 193 201 214 236 251 253 260 275 282 279 276 274 274 274 275 276 275 272 268 266 270 275 275 273 277 283 287 290 290 289 286 284 282 282 282 283
212 214 213 211 210 208 209 210 209 210 210 210 210 210 211 212 213 215 215 215 216 218 220 219 218 220 222 222 223 223 225 226 220 213 208 204 200 198 196 193 191 191 192 190 185 182 182 187 196 203 213 231 249 253 254 267 280 283 281 279 279 280 279 277 276 275 273 271 270 273 278 279 278 281 285 289 289 286 284 283 282 283 283 282 282
209 211 210 209 208 207 208 207 205 205 204 203 204 206 207 208 209 211 210 211 215 217 217 217 216 216 219 221 219 219 221 223 217 210 206 202 198 194 193 191 190 190 188 182 180 183 188 194 201 213 232 245 251 252 259 273 282 282 281 281 281 282 281 280 280 278 276 275 275 276 278 280 281 283 285 287 286 286 287 287 285 284 282 278 278
208 208 207 206 206 207 209 206 202 201 199 198 199 201 203 205 206 207 206 206 209 212 212 213 215 215 215 216 216 215 217 218 213 207 203 200 195 192 192 191 190 189 184 180 183 188 191 198 213 233 247 251 252 254 263 277 284 282 281 282 282 282 283 285 287 287 286 285 283 283 284 285 285 284 285 284 283 284 286 285 285 285 280 274 275
202 203 203 203 204 205 207 205 201 197 196 196 197 198 200 201 203 205 206 204 205 207 208 210 214 215 214 215 216 215 214 210 206 204 202 200 197 195 193 190 187 185 181 180 184 189 195 210 232 247 254 257 257 259 268 280 283 280 279 280 280 281 284 289 293 294 295 294 294 294 294 294 294 293 293 292 290 288 282 277 279 279 273 270 274
196 198 199 199 200 201 203 203 199 196 195 196 196 195 195 197 201 202 203 203 203 204 206 209 211 213 214 215 216 215 212 206 202 203 202 201 199 196 192 187 183 180 179 179 182 193 209 227 243 253 260 264 263 265 275 282 282 279 277 276 277 281 287 293 296 298 300 299 298 298 297 296 297 296 294 293 293 289 280 276 276 274 270 273 279
192 193 191 190 193 196 199 198 195 194 194 192 191 191 192 195 197 196 196 199 201 202 204 206 207 208 210 211 211 211 208 201 198 200 201 200 197 194 191 187 182 178 180 185 193 207 225 240 251 260 266 268 267 272 281 284 281 279 276 273 276 283 292 297 298 300 300 299 298 296 294 294 292 289 287 286 286 284 281 279 277 273 272 278 283
179 179 180 182 187 192 193 192 190 190 190 187 184 186 191 194 193 190 190 192 193 194 196 197 198 200 203 206 206 206 205 199 194 193 196 196 195 194 190 187 184 183 187 196 210 226 242 254 262 267 270 270 273 279 283 280 275 273 273 274 279 287 295 297 298 299 298 297 297 296 294 292 289 284 283 286 288 291 291 287 281 275 274 277 281
168 169 172 176 180 182 181 182 183 182 182 182 180 180 186 189 187 185 185 184 183 184 186 188 191 192 195 199 202 201 201 199 193 190 192 193 192 190 188 186 189 195 200 211 228 242 251 257 264 269 271 273 278 281 277 270 267 269 273 277 284 289 292 292 294 296 297 297 299 298 297 296 294 291 293 297 301 304 302 294 285 277 274 275 279
165 165 166 166 165 167 169 173 176 175 176 179 178 175 178 179 179 180 180 178 176 176 177 181 184 183 182 186 191 192 190 190 190 188 188 190 187 186 189 195 202 210 217 228 238 245 251 257 261 263 265 268 272 270 264 265 269 271 277 282 285 286 287 290 294 296 297 298 299 299 299 300 300 300 302 305 307 309 306 297 292 289 286 286 287
159 154 152 151 152 157 161 165 169 171 173 175 173 171 170 170 171 174 175 173 170 167 168 172 173 172 171 172 177 181 180 181 184 184 185 188 188 190 198 208 215 223 232 237 241 244 248 248 247 249 257 265 269 270 272 275 275 275 277 277 277 279 284 291 296 298 300 300 300 301 303 304 306 309 309 309 309 308 306 305 305 303 301 301 300
148 143 143 145 148 151 153 157 163 167 170 170 170 168 165 163 164 166 167 167 164 158 157 164 168 168 169 171 174 178 180 181 183 184 185 188 190 194 202 210 217 226 232 233 231 229 225 222 227 247 270 279 281 283 284 282 279 279 279 277 279 285 292 296 298 299 301 303 303 307 310 311 312 313 312 311 312 312 313 313 311 310 309 310 308
142 141 141 144 148 149 148 150 154 157 159 163 165 163 160 157 157 158 160 163 163 159 158 164 168 169 171 176 178 179 182 184 186 188 190 193 198 203 203 205 212 214 211 212 214 212 214 225 245 268 283 288 290 290 288 285 286 292 300 305 309 314 318 315 311 308 307 306 307 309 311 312 312 311 313 314 315 315 316 316 314 312 313 314 312
142 141 142 144 147 146 144 143 144 145 148 152 156 157 159 160 158 157 160 164 165 164 164 165 166 166 168 175 180 183 186 189 191 195 199 203 208 208 203 204 206 201 199 206 214 220 231 247 262 276 288 297 305 316 332 357 12 16 8 360 347 335 329 323 317 312 308 306 307 308 309 310 311 311 313 314 314 314 316 317 317 316 314 315 313
143 141 141 142 142 142 143 141 138 137 140 142 145 151 157 161 159 158 164 166 164 165 167 167 166 167 169 174 180 184 190 196 199 203 206 205 204 202 200 202 203 198 200 210 218 228 241 251 265 284 313 47 73 79 81 69 50 22 338 335 339 335 330 324 316 310 306 305 306 307 308 308 310 311 312 312 313 316 317 318 319 318 316 316 315
142 139 138 139 140 141 142 141 138 137 137 134 134 138 146 155 156 156 160 164 168 172 174 174 176 177 176 180 183 183 189 198 203 204 203 202 201 200 199 200 200 198 202 210 211 206 199 173 144 124 112 111 114 109 74 8 358 328 318 321 326 324 319 316 315 309 302 300 303 305 306 307 308 310 312 311 312 316 319 320 321 320 318 316 313
141 140 141 143 144 143 143 143 144 142 140 136 133 129 132 147 159 162 163 168 176 181 182 183 186 186 182 181 184 186 190 195 196 193 191 190 191 191 191 191 192 191 189 185 174 156 143 135 135 139 138 138 152 170 199 246 249 272 291 302 308 310 309 307 302 292 290 297 303 304 304 306 308 311 314 314 314 317 321 322 321 320 319 317 314
145 146 149 150 150 150 149 148 147 145 143 142 137 128 120 119 129 147 161 168 173 179 183 184 186 188 186 179 175 179 185 186 182 179 177 176 175 173 172 170 168 166 163 157 149 144 144 143 144 153 166 175 181 188 197 203 218 246 269 284 292 293 286 278 278 283 293 302 307 302 301 305 309 312 316 317 318 320 323 324 323 322 320 318 316
152 153 155 155 156 157 155 152 150 149 147 145 141 135 126 114 105 106 122 140 152 156 162 165 164 167 174 173 166 161 159 162 166 166 164 162 161 159 157 156 155 156 157 155 147 143 150 161 165 170 175 174 178 188 196 200 218 245 264 275 277 270 267 273 281 290 300 305 299 296 301 307 310 313 317 319 321 323 324 325 325 323 320 319 317
161 160 161 161 159 159 158 156 156 156 154 151 147 143 137 128 119 113 109 110 117 123 130 142 148 148 151 155 157 152 149 150 154 153 150 148 146 144 144 146 148 150 152 155 155 159 167 175 179 182 180 174 179 191 202 215 236 254 265 269 265 263 268 278 289 297 299 292 292 300 306 308 311 316 318 319 322 323 321 321 322 321 321 319 317
168 167 168 167 164 163 162 161 160 160 159 156 152 148 144 139 134 129 122 116 111 107 109 118 130 135 135 135 137 138 137 139 141 140 139 140 143 146 149 150 152 154 157 160 164 169 176 181 183 187 190 191 199 213 225 238 252 262 265 263 262 266 275 286 295 297 294 296 302 303 300 303 310 315 315 317 319 318 317 318 317 317 318 316 313
172 171 170 169 167 166 165 164 163 162 160 157 154 152 150 145 140 136 134 132 126 120 115 114 116 120 123 125 128 130 132 135 137 139 142 147 151 156 160 163 170 178 183 184 182 181 184 189 194 201 209 215 225 238 246 252 257 259 259 258 259 264 275 286 291 290 296 307 306 293 290 298 306 308 308 310 312 312 312 313 311 311 312 311 309
175 172 170 171 170 168 167 167 166 165 163 161 159 156 153 148 144 141 140 138 134 130 126 124 123 125 125 128 133 139 142 147 150 153 158 164 168 169 168 169 177 187 193 197 200 200 202 208 214 219 226 231 237 245 250 252 253 253 254 257 258 260 269 279 281 282 292 301 298 289 289 296 304 308 307 307 309 308 307 308 308 307 307 306 306
180 176 173 173 172 170 168 168 167 166 166 164 162 158 154 149 146 145 144 143 140 137 135 135 136 137 136 138 147 155 159 164 169 175 180 185 187 187 182 178 185 196 201 204 208 210 214 218 222 226 231 236 240 244 247 250 252 254 254 255 257 259 264 270 273 277 285 293 294 291 292 298 306 310 306 304 307 306 304 305 307 306 306 307 308
183 180 177 175 173 172 170 168 167 168 168 165 164 162 157 153 150 149 150 150 149 147 146 146 148 148 148 152 163 172 176 179 185 190 191 190 190 192 191 191 197 204 206 205 207 211 214 218 221 226 232 237 240 244 247 248 251 252 252 253 256 259 260 263 268 272 280 287 290 289 289 293 299 298 294 295 299 299 299 302 306 306 306 308 311
180 180 179 176 175 175 174 171 171 171 170 169 169 167 163 159 155 153 155 157 156 155 156 157 160 163 165 169 175 179 180 183 187 187 184 184 187 192 196 200 203 205 205 205 206 209 213 217 221 227 233 238 241 243 246 247 249 251 252 253 255 258 259 261 265 269 275 280 282 281 282 284 285 284 285 288 290 291 293 298 303 304 301 303 307
178 177 178 177 177 177 177 175 174 173 173 173 172 171 171 168 164 163 164 162 163 165 166 167 171 177 180 183 186 185 182 184 188 187 185 188 193 195 197 200 203 205 206 207 208 212 217 220 224 230 235 238 240 242 244 246 248 251 253 254 254 256 258 259 261 265 268 272 274 276 278 278 278 279 282 283 282 283 288 295 300 300 296 296 301
177 175 176 178 180 179 177 176 177 177 177 178 177 177 178 176 173 174 173 169 169 174 176 177 183 189 190 192 195 196 195 197 198 197 197 198 198 198 200 202 204 205 207 209 212 216 220 224 228 232 236 239 240 242 244 246 248 251 253 255 255 256 258 260 261 263 264 267 270 273 274 274 274 276 279 280 278 279 285 290 292 293 293 294 296
177 175 175 176 178 177 176 176 177 178 178 179 179 180 181 180 180 182 181 179 179 182 182 184 191 194 193 193 196 201 207 212 212 209 209 207 203 203 204 205 206 208 211 213 216 220 224 228 231 235 239 242 243 244 246 247 249 252 254 255 257 258 259 261 263 264 263 265 268 271 271 270 270 272 275 278 278 279 282 284 285 288 290 292 293
177 175 173 172 173 175 176 176 176 176 178 179 180 182 184 185 185 186 186 186 187 187 186 187 190 189 187 187 193 204 213 218 218 217 216 211 208 208 210 210 210 212 214 218 222 225 228 232 236 239 243 245 246 248 250 252 252 254 255 257 259 260 261 261 263 264 265 266 268 270 269 268 268 269 271 273 273 274 276 278 283 286 287 286 288
174 172 169 168 169 171 173 174 174 176 177 179 181 182 184 186 186 187 189 189 188 188 189 189 188 186 184 186 195 208 214 215 216 217 216 213 213 214 215 215 216 217 219 223 227 230 234 238 240 243 246 248 249 251 253 254 255 256 257 259 260 261 262 263 264 265 267 267 267 268 270 270 270 269 268 268 269 269 271 274 278 281 281 282 283
171 170 168 167 167 169 170 172 175 175 175 176 177 178 179 183 185 187 189 189 187 187 189 190 191 192 192 194 201 209 210 210 214 217 218 218 219 219 221 223 225 226 228 232 235 238 243 246 247 249 251 252 253 253 254 255 257 258 258 259 261 263 266 267 267 266 265 265 266 267 268 270 270 270 269 269 267 266 268 272 271 271 274 278 280
169 169 169 169 168 169 170 172 173 173 173 173 174 173 175 179 183 184 186 187 187 187 189 191 194 198 200 202 207 211 212 215 220 223 223 223 224 226 228 231 232 235 239 242 245 248 252 254 255 256 257 257 257 257 256 256 258 259 259 260 262 264 266 267 267 266 265 265 266 267 266 267 269 269 269 268 265 263 265 267 266 267 271 275 277
166 166 168 168 167 167 168 169 169 170 171 172 172 172 173 175 178 180 182 185 187 189 192 195 199 204 208 211 216 222 226 229 231 231 230 230 232 234 236 239 243 246 250 252 255 257 259 260 262 263 263 263 262 261 260 260 260 261 261 261 262 264 265 266 265 266 265 264 264 264 264 266 268 268 268 269 267 266 267 266 266 269 272 273 274
161 162 164 166 166 166 165 166 167 168 168 168 169 171 172 173 175 178 181 184 188 192 197 202 207 212 219 224 227 230 232 234 235 236 236 237 239 242 245 249 253 255 258 260 262 264 266 267 267 267 266 265 265 264 264 263 262 262 262 262 262 263 265 264 264 264 263 262 263 263 263 264 265 265 267 268 268 267 267 266 265 266 267 267 270
155 158 159 161 162 163 164 164 165 166 167 168 169 171 171 173 177 180 183 188 195 201 207 213 218 223 227 230 232 233 234 236 239 242 244 245 247 249 252 256 259 261 264 266 267 268 269 269 269 269 268 267 267 266 266 265 263 262 262 262 262 263 264 263 262 261 261 261 262 262 262 263 264 264 265 266 266 266 267 265 264 263 261 261 266
148 151 154 156 157 160 162 163 164 165 167 168 170 171 172 176 181 187 194 202 209 213 218 222 225 228 232 234 236 238 241 243 247 250 252 253 255 257 259 261 263 266 268 269 270 271 271 270 269 269 269 269 269 268 267 266 264 262 261 261 261 262 262 261 260 260 259 260 261 262 262 262 263 263 263 265 264 264 264 263 262 262 260 259 263
139 142 146 148 149 152 154 155 157 160 162 165 169 173 178 185 194 201 208 214 219 222 226 230 232 235 239 242 244 247 249 252 256 259 260 261 263 264 265 267 268 269 271 272 273 273 273 273 272 272 271 270 270 269 268 266 265 263 262 261 261 261 261 260 260 260 259 259 260 261 261 261 261 262 262 263 263 262 261 260 258 259 261 262 264